ONEWEB-0020

operational
NORAD ID: 45133 Int'l Des: 2020-008 Owner: ONEWEB Country: UK Constellation: oneweb
LEOCIRCULARPOLARONEWEB_TYPE

ONEWEB-0020について

説明を読み込み中...

リアルタイム位置

3D地球を読み込み中...

次回通過

高度履歴

Altitude vs Time

uPlot chart will show altitude changes over time

軌道要素

1 45133U 20008C 25251.82150509 -.00000613 00000-0 -17938-2 0 9993
2 45133 87.8744 92.3719 0001769 91.3336 268.7994 13.10371997271494
Epoch: Sep 8, 2025 • Age: 15 hours

現在のステータス

高度 1226.0 km
速度 7.24 km/s
衛星直下点 -7.29°S, 51.84°W
打ち上げ日 Oct 20, 2024
運用期間 0.8 years
タイプ internet

技術仕様

分類 Payload
質量 148.00 kg
乾燥質量 140.00 kg
総質量 148.00 kg
長さ 1.30 m
直径 1.00 m
スパン 5.00 m
形状 Trapezoid+2 pan
製造者 ONEWUS
バスタイプ ARROW
フェーズステータス In Orbit
所有者/国 ONEWEB/UK

大規模コンステレーション

Loading constellations...